Location: Capvern
(43.1036°N, 0.3160°E)
Time: 22:58:59
(UTC+00:00)

Cosmos 2322 Rocket - Pass Details

Date: 16 October 2021
Orbit: 832 x 851 km, 71.0° (Epoch: 04 December)

Event Time Altitude Azimuth Distance (km) Brightness Sun altitude
Rises 20:01:33 0° 205° (SSW) 3,363 5.4 -31.0°
Reaches altitude 10° 20:03:58 10° 206° (SSW) 2,432 4.6 -31.5°
Enters shadow 20:04:33 13° 206° (SSW) 2,213 4.4 -31.6°
